contact:dominique.lefevre@mio.osupytheas.fr, maurice.libes@osupytheas.fr, didier.mallarino@osupytheas.fr
Project:EMSO http://www.emso-fr.org/EMSO-France
Depth: 2436.0 m
Title:EMSO Ligure Ouest : Data MII capteur MICROCAT
DateTime_Computer,Latitude,Longitude,Temperature,Conductivity,Pressure,DateTime_Instrument
DateTime_Computer,Latitude,Longitude,degC,S m-1,dbar,DateTime_Instrument
2021-11-03T00:01:51Z,42.805,6.029,13.2993,4.60017,2470.366,2021-11-03T02:03:16Z
2021-11-03T00:04:55Z,42.805,6.029,13.2992,4.60018,2470.357,2021-11-03T02:06:20Z
2021-11-03T00:07:58Z,42.805,6.029,13.2997,4.60018,2470.404,2021-11-03T02:09:23Z
2021-11-03T00:11:01Z,42.805,6.029,13.2993,4.60019,2470.334,2021-11-03T02:12:26Z
2021-11-03T00:14:04Z,42.805,6.029,13.2994,4.60021,2470.366,2021-11-03T02:15:29Z
2021-11-03T00:17:07Z,42.805,6.029,13.2994,4.60016,2470.334,2021-11-03T02:18:32Z
2021-11-03T00:20:10Z,42.805,6.029,13.2994,4.60018,2470.39,2021-11-03T02:21:35Z
2021-11-03T00:23:13Z,42.805,6.029,13.2994,4.60017,2470.38,2021-11-03T02:24:38Z
2021-11-03T00:26:16Z,42.805,6.029,13.2994,4.60023,2470.343,2021-11-03T02:27:41Z
2021-11-03T00:29:19Z,42.805,6.029,13.2996,4.60023,2470.38,2021-11-03T02:30:44Z
2021-11-03T00:32:23Z,42.805,6.029,13.2993,4.60019,2470.366,2021-11-03T02:33:48Z
2021-11-03T00:35:26Z,42.805,6.029,13.2996,4.60019,2470.404,2021-11-03T02:36:51Z
2021-11-03T00:38:29Z,42.805,6.029,13.2993,4.60019,2470.343,2021-11-03T02:39:54Z
2021-11-03T00:41:32Z,42.805,6.029,13.3000,4.60019,2470.357,2021-11-03T02:42:57Z
2021-11-03T00:44:35Z,42.805,6.029,13.2993,4.60019,2470.366,2021-11-03T02:46:00Z
2021-11-03T00:47:38Z,42.805,6.029,13.2997,4.60020,2470.394,2021-11-03T02:49:03Z
2021-11-03T00:50:41Z,42.805,6.029,13.2996,4.60018,2470.413,2021-11-03T02:52:06Z
2021-11-03T00:53:44Z,42.805,6.029,13.2993,4.60016,2470.366,2021-11-03T02:55:09Z
2021-11-03T00:56:48Z,42.805,6.029,13.2994,4.60019,2470.39,2021-11-03T02:58:13Z
2021-11-03T00:59:51Z,42.805,6.029,13.2995,4.60016,2470.366,2021-11-03T03:01:16Z
2021-11-03T01:02:54Z,42.805,6.029,13.2993,4.60016,2470.38,2021-11-03T03:04:19Z
2021-11-03T01:05:57Z,42.805,6.029,13.2993,4.60016,2470.343,2021-11-03T03:07:22Z
2021-11-03T01:09:00Z,42.805,6.029,13.2994,4.60017,2470.366,2021-11-03T03:10:25Z
2021-11-03T01:12:03Z,42.805,6.029,13.2997,4.60017,2470.343,2021-11-03T03:13:28Z
2021-11-03T01:15:06Z,42.805,6.029,13.2997,4.60016,2470.32,2021-11-03T03:16:31Z
2021-11-03T01:18:09Z,42.805,6.029,13.2995,4.60016,2470.357,2021-11-03T03:19:34Z
2021-11-03T01:21:12Z,42.805,6.029,13.2994,4.60017,2470.39,2021-11-03T03:22:37Z
2021-11-03T01:24:16Z,42.805,6.029,13.2992,4.60019,2470.39,2021-11-03T03:25:41Z
2021-11-03T01:27:19Z,42.805,6.029,13.2994,4.60020,2470.38,2021-11-03T03:28:44Z
2021-11-03T01:30:22Z,42.805,6.029,13.2998,4.60024,2470.366,2021-11-03T03:31:47Z
2021-11-03T01:33:25Z,42.805,6.029,13.2995,4.60020,2470.39,2021-11-03T03:34:50Z
2021-11-03T01:36:28Z,42.805,6.029,13.2998,4.60017,2470.366,2021-11-03T03:37:53Z
2021-11-03T01:39:31Z,42.805,6.029,13.2997,4.60017,2470.366,2021-11-03T03:40:56Z
2021-11-03T01:42:34Z,42.805,6.029,13.2994,4.60019,2470.39,2021-11-03T03:43:59Z
2021-11-03T01:45:37Z,42.805,6.029,13.2994,4.60021,2470.357,2021-11-03T03:47:02Z
2021-11-03T01:48:41Z,42.805,6.029,13.2991,4.60020,2470.38,2021-11-03T03:50:05Z
2021-11-03T01:51:44Z,42.805,6.029,13.2992,4.60017,2470.357,2021-11-03T03:53:09Z
2021-11-03T01:54:47Z,42.805,6.029,13.2996,4.60016,2470.427,2021-11-03T03:56:12Z
2021-11-03T01:57:50Z,42.805,6.029,13.2993,4.60019,2470.366,2021-11-03T03:59:15Z
2021-11-03T02:00:53Z,42.805,6.029,13.2995,4.60019,2470.404,2021-11-03T04:02:18Z
2021-11-03T02:03:56Z,42.805,6.029,13.2996,4.60020,2470.413,2021-11-03T04:05:21Z
2021-11-03T02:06:59Z,42.805,6.029,13.2998,4.60016,2470.404,2021-11-03T04:08:24Z
2021-11-03T02:10:02Z,42.805,6.029,13.2995,4.60017,2470.38,2021-11-03T04:11:27Z
2021-11-03T02:13:05Z,42.805,6.029,13.2996,4.60016,2470.413,2021-11-03T04:14:30Z
2021-11-03T02:16:09Z,42.805,6.029,13.2999,4.60018,2470.39,2021-11-03T04:17:34Z
2021-11-03T02:19:12Z,42.805,6.029,13.2993,4.60023,2470.413,2021-11-03T04:20:37Z
2021-11-03T02:22:15Z,42.805,6.029,13.2996,4.60017,2470.427,2021-11-03T04:23:40Z
2021-11-03T02:25:18Z,42.805,6.029,13.2995,4.60018,2470.427,2021-11-03T04:26:43Z
2021-11-03T02:28:21Z,42.805,6.029,13.2996,4.60019,2470.357,2021-11-03T04:29:46Z
2021-11-03T02:31:24Z,42.805,6.029,13.2996,4.60018,2470.413,2021-11-03T04:32:49Z
2021-11-03T02:34:27Z,42.805,6.029,13.2994,4.60021,2470.413,2021-11-03T04:35:52Z
2021-11-03T02:37:30Z,42.805,6.029,13.2993,4.60023,2470.45,2021-11-03T04:38:55Z
2021-11-03T02:40:34Z,42.805,6.029,13.2993,4.60020,2470.413,2021-11-03T04:41:59Z
2021-11-03T02:43:37Z,42.805,6.029,13.2997,4.60018,2470.413,2021-11-03T04:45:02Z
2021-11-03T02:46:40Z,42.805,6.029,13.2999,4.60021,2470.413,2021-11-03T04:48:05Z
2021-11-03T02:49:43Z,42.805,6.029,13.2992,4.60020,2470.437,2021-11-03T04:51:08Z
2021-11-03T02:52:46Z,42.805,6.029,13.2992,4.60020,2470.437,2021-11-03T04:54:11Z
2021-11-03T02:55:49Z,42.805,6.029,13.2996,4.60026,2470.437,2021-11-03T04:57:14Z
2021-11-03T02:58:52Z,42.805,6.029,13.2992,4.60022,2470.413,2021-11-03T05:00:17Z
2021-11-03T03:01:55Z,42.805,6.029,13.2998,4.60022,2470.45,2021-11-03T05:03:20Z
2021-11-03T03:04:59Z,42.805,6.029,13.2993,4.60017,2470.437,2021-11-03T05:06:24Z
2021-11-03T03:08:02Z,42.805,6.029,13.2995,4.60019,2470.474,2021-11-03T05:09:27Z
2021-11-03T03:11:05Z,42.805,6.029,13.2998,4.60021,2470.474,2021-11-03T05:12:30Z
2021-11-03T03:14:08Z,42.805,6.029,13.2993,4.60019,2470.474,2021-11-03T05:15:33Z
2021-11-03T03:17:11Z,42.805,6.029,13.2993,4.60022,2470.474,2021-11-03T05:18:36Z
2021-11-03T03:20:14Z,42.805,6.029,13.2993,4.60021,2470.46,2021-11-03T05:21:39Z
2021-11-03T03:23:17Z,42.805,6.029,13.2993,4.60024,2470.497,2021-11-03T05:24:42Z
2021-11-03T03:26:20Z,42.805,6.029,13.2998,4.60020,2470.474,2021-11-03T05:27:45Z
2021-11-03T03:29:23Z,42.805,6.029,13.2995,4.60018,2470.46,2021-11-03T05:30:48Z
2021-11-03T03:32:27Z,42.805,6.029,13.2994,4.60026,2470.46,2021-11-03T05:33:52Z
2021-11-03T03:35:30Z,42.805,6.029,13.2993,4.60021,2470.53,2021-11-03T05:36:55Z
2021-11-03T03:38:33Z,42.805,6.029,13.2997,4.60022,2470.507,2021-11-03T05:39:58Z
2021-11-03T03:41:36Z,42.805,6.029,13.2995,4.60022,2470.497,2021-11-03T05:43:01Z
2021-11-03T03:44:39Z,42.805,6.029,13.2997,4.60025,2470.497,2021-11-03T05:46:04Z
2021-11-03T03:47:42Z,42.805,6.029,13.2993,4.60029,2470.497,2021-11-03T05:49:07Z
2021-11-03T03:50:45Z,42.805,6.029,13.2996,4.60033,2470.483,2021-11-03T05:52:10Z
2021-11-03T03:53:48Z,42.805,6.029,13.2995,4.60032,2470.483,2021-11-03T05:55:13Z
2021-11-03T03:56:52Z,42.805,6.029,13.2998,4.60026,2470.544,2021-11-03T05:58:17Z
2021-11-03T03:59:55Z,42.805,6.029,13.2995,4.60032,2470.52,2021-11-03T06:01:20Z
2021-11-03T04:02:58Z,42.805,6.029,13.2993,4.60033,2470.507,2021-11-03T06:04:23Z
2021-11-03T04:06:01Z,42.805,6.029,13.2995,4.60042,2470.544,2021-11-03T06:07:26Z
2021-11-03T04:09:04Z,42.805,6.029,13.2996,4.60034,2470.497,2021-11-03T06:10:29Z
2021-11-03T04:12:07Z,42.805,6.029,13.3016,4.60034,2470.497,2021-11-03T06:13:32Z
2021-11-03T04:15:10Z,42.805,6.029,13.3001,4.60051,2470.544,2021-11-03T06:16:35Z
2021-11-03T04:18:13Z,42.805,6.029,13.2997,4.60046,2470.52,2021-11-03T06:19:38Z
2021-11-03T04:21:16Z,42.805,6.029,13.3000,4.60039,2470.53,2021-11-03T06:22:41Z
2021-11-03T04:24:20Z,42.805,6.029,13.3038,4.60043,2470.553,2021-11-03T06:25:45Z
2021-11-03T04:27:23Z,42.805,6.029,13.3058,4.60050,2470.544,2021-11-03T06:28:48Z
2021-11-03T04:30:26Z,42.805,6.029,13.3021,4.60049,2470.52,2021-11-03T06:31:51Z
2021-11-03T04:33:29Z,42.805,6.029,13.3004,4.60052,2470.507,2021-11-03T06:34:54Z
2021-11-03T04:36:32Z,42.805,6.029,13.2998,4.60057,2470.52,2021-11-03T06:37:57Z
2021-11-03T04:39:35Z,42.805,6.029,13.3036,4.60057,2470.544,2021-11-03T06:41:00Z
2021-11-03T04:42:38Z,42.805,6.029,13.3055,4.60080,2470.507,2021-11-03T06:44:03Z
2021-11-03T04:45:41Z,42.805,6.029,13.3001,4.60048,2470.553,2021-11-03T06:47:06Z
2021-11-03T04:48:45Z,42.805,6.029,13.3061,4.60054,2470.544,2021-11-03T06:50:10Z
2021-11-03T04:51:48Z,42.805,6.029,13.2993,4.60064,2470.553,2021-11-03T06:53:13Z
2021-11-03T04:54:51Z,42.805,6.029,13.3004,4.60043,2470.544,2021-11-03T06:56:16Z
2021-11-03T04:57:54Z,42.805,6.029,13.2999,4.60053,2470.544,2021-11-03T06:59:19Z
2021-11-03T05:00:57Z,42.805,6.029,13.3000,4.60057,2470.553,2021-11-03T07:02:22Z
2021-11-03T05:04:00Z,42.805,6.029,13.3019,4.60067,2470.567,2021-11-03T07:05:25Z
2021-11-03T05:07:03Z,42.805,6.029,13.3035,4.60052,2470.567,2021-11-03T07:08:28Z
2021-11-03T05:10:06Z,42.805,6.029,13.3028,4.60056,2470.53,2021-11-03T07:11:31Z
2021-11-03T05:13:09Z,42.805,6.029,13.3021,4.60054,2470.53,2021-11-03T07:14:34Z
2021-11-03T05:16:13Z,42.805,6.029,13.3028,4.60042,2470.53,2021-11-03T07:17:38Z
2021-11-03T05:19:16Z,42.805,6.029,13.3012,4.60054,2470.567,2021-11-03T07:20:41Z
2021-11-03T05:22:19Z,42.805,6.029,13.3024,4.60042,2470.553,2021-11-03T07:23:44Z
2021-11-03T05:25:22Z,42.805,6.029,13.3038,4.60057,2470.567,2021-11-03T07:26:47Z
2021-11-03T05:28:25Z,42.805,6.029,13.3045,4.60045,2470.553,2021-11-03T07:29:50Z
2021-11-03T05:31:28Z,42.805,6.029,13.3026,4.60084,2470.544,2021-11-03T07:32:53Z
2021-11-03T05:34:31Z,42.805,6.029,13.3038,4.60058,2470.591,2021-11-03T07:35:56Z
2021-11-03T05:37:34Z,42.805,6.029,13.3026,4.60047,2470.577,2021-11-03T07:38:59Z
2021-11-03T05:40:38Z,42.805,6.029,13.3024,4.60056,2470.553,2021-11-03T07:42:03Z
2021-11-03T05:43:41Z,42.805,6.029,13.3051,4.60064,2470.553,2021-11-03T07:45:06Z
2021-11-03T05:46:44Z,42.805,6.029,13.3042,4.60062,2470.591,2021-11-03T07:48:09Z
2021-11-03T05:49:47Z,42.805,6.029,13.3024,4.60054,2470.591,2021-11-03T07:51:12Z
2021-11-03T05:52:50Z,42.805,6.029,13.3034,4.60057,2470.544,2021-11-03T07:54:15Z
2021-11-03T05:55:53Z,42.805,6.029,13.3031,4.60049,2470.567,2021-11-03T07:57:18Z
2021-11-03T05:58:56Z,42.805,6.029,13.3039,4.60064,2470.591,2021-11-03T08:00:21Z
2021-11-03T06:01:59Z,42.805,6.029,13.3046,4.60064,2470.577,2021-11-03T08:03:24Z
2021-11-03T06:05:02Z,42.805,6.029,13.3034,4.60057,2470.567,2021-11-03T08:06:27Z
2021-11-03T06:08:06Z,42.805,6.029,13.3023,4.60045,2470.567,2021-11-03T08:09:31Z
2021-11-03T06:11:09Z,42.805,6.029,13.3043,4.60047,2470.577,2021-11-03T08:12:34Z
2021-11-03T06:14:12Z,42.805,6.029,13.3048,4.60049,2470.553,2021-11-03T08:15:37Z
2021-11-03T06:17:15Z,42.805,6.029,13.3008,4.60061,2470.553,2021-11-03T08:18:40Z
2021-11-03T06:20:18Z,42.805,6.029,13.3006,4.60067,2470.567,2021-11-03T08:21:43Z
2021-11-03T06:23:21Z,42.805,6.029,13.3029,4.60077,2470.614,2021-11-03T08:24:46Z
2021-11-03T06:26:24Z,42.805,6.029,13.3033,4.60048,2470.591,2021-11-03T08:27:49Z
2021-11-03T06:29:27Z,42.805,6.029,13.3023,4.60056,2470.577,2021-11-03T08:30:52Z
2021-11-03T06:32:31Z,42.805,6.029,13.3021,4.60068,2470.567,2021-11-03T08:33:56Z
2021-11-03T06:35:34Z,42.805,6.029,13.3029,4.60055,2470.553,2021-11-03T08:36:59Z
2021-11-03T06:38:37Z,42.805,6.029,13.3041,4.60084,2470.591,2021-11-03T08:40:02Z
2021-11-03T06:41:40Z,42.805,6.029,13.3014,4.60055,2470.577,2021-11-03T08:43:05Z
2021-11-03T06:44:43Z,42.805,6.029,13.3034,4.60056,2470.567,2021-11-03T08:46:08Z
2021-11-03T06:47:46Z,42.805,6.029,13.3031,4.60042,2470.567,2021-11-03T08:49:11Z
2021-11-03T06:50:49Z,42.805,6.029,13.3024,4.60052,2470.553,2021-11-03T08:52:14Z
2021-11-03T06:53:52Z,42.805,6.029,13.3015,4.60059,2470.577,2021-11-03T08:55:17Z
2021-11-03T06:56:55Z,42.805,6.029,13.3033,4.60047,2470.52,2021-11-03T08:58:20Z
2021-11-03T06:59:59Z,42.805,6.029,13.3022,4.60068,2470.591,2021-11-03T09:01:24Z
2021-11-03T07:03:02Z,42.805,6.029,13.3030,4.60050,2470.544,2021-11-03T09:04:27Z
2021-11-03T07:06:05Z,42.805,6.029,13.3024,4.60046,2470.577,2021-11-03T09:07:30Z
2021-11-03T07:09:08Z,42.805,6.029,13.3016,4.60039,2470.544,2021-11-03T09:10:33Z
2021-11-03T07:12:11Z,42.805,6.029,13.3018,4.60045,2470.553,2021-11-03T09:13:36Z
2021-11-03T07:15:14Z,42.805,6.029,13.3021,4.60047,2470.591,2021-11-03T09:16:39Z
2021-11-03T07:18:17Z,42.805,6.029,13.3025,4.60039,2470.567,2021-11-03T09:19:42Z
2021-11-03T07:21:20Z,42.805,6.029,13.3023,4.60041,2470.591,2021-11-03T09:22:45Z
2021-11-03T07:24:24Z,42.805,6.029,13.3019,4.60036,2470.553,2021-11-03T09:25:49Z
2021-11-03T07:27:27Z,42.805,6.029,13.3019,4.60042,2470.567,2021-11-03T09:28:52Z
2021-11-03T07:30:30Z,42.805,6.029,13.3019,4.60038,2470.577,2021-11-03T09:31:55Z
2021-11-03T07:33:33Z,42.805,6.029,13.3018,4.60041,2470.567,2021-11-03T09:34:58Z
2021-11-03T07:36:36Z,42.805,6.029,13.3029,4.60040,2470.553,2021-11-03T09:38:01Z
2021-11-03T07:39:39Z,42.805,6.029,13.3039,4.60040,2470.53,2021-11-03T09:41:04Z
2021-11-03T07:42:42Z,42.805,6.029,13.3028,4.60041,2470.567,2021-11-03T09:44:07Z
2021-11-03T07:45:45Z,42.805,6.029,13.3023,4.60040,2470.53,2021-11-03T09:47:10Z
2021-11-03T07:48:49Z,42.805,6.029,13.3026,4.60049,2470.544,2021-11-03T09:50:14Z
2021-11-03T07:51:52Z,42.805,6.029,13.3026,4.60033,2470.544,2021-11-03T09:53:17Z
2021-11-03T07:54:55Z,42.805,6.029,13.3015,4.60036,2470.567,2021-11-03T09:56:20Z
2021-11-03T07:57:58Z,42.805,6.029,13.3024,4.60031,2470.507,2021-11-03T09:59:23Z
2021-11-03T08:01:01Z,42.805,6.029,13.3023,4.60035,2470.553,2021-11-03T10:02:26Z
2021-11-03T08:04:04Z,42.805,6.029,13.3026,4.60050,2470.53,2021-11-03T10:05:29Z
2021-11-03T08:07:07Z,42.805,6.029,13.3014,4.60067,2470.544,2021-11-03T10:08:32Z
2021-11-03T08:10:10Z,42.805,6.029,13.3041,4.60055,2470.544,2021-11-03T10:11:35Z
2021-11-03T08:13:13Z,42.805,6.029,13.3017,4.60041,2470.507,2021-11-03T10:14:38Z
2021-11-03T08:16:17Z,42.805,6.029,13.3030,4.60068,2470.53,2021-11-03T10:17:42Z
2021-11-03T08:19:20Z,42.805,6.029,13.3028,4.60064,2470.553,2021-11-03T10:20:45Z
2021-11-03T08:22:23Z,42.805,6.029,13.3036,4.60068,2470.53,2021-11-03T10:23:48Z
2021-11-03T08:25:26Z,42.805,6.029,13.3021,4.60050,2470.544,2021-11-03T10:26:51Z
2021-11-03T08:28:29Z,42.805,6.029,13.3022,4.60068,2470.544,2021-11-03T10:29:54Z
2021-11-03T08:31:32Z,42.805,6.029,13.3053,4.60081,2470.483,2021-11-03T10:32:57Z
2021-11-03T08:34:35Z,42.805,6.029,13.3052,4.60053,2470.507,2021-11-03T10:36:00Z
2021-11-03T08:37:38Z,42.805,6.029,13.3028,4.60073,2470.544,2021-11-03T10:39:03Z
2021-11-03T08:40:42Z,42.805,6.029,13.3020,4.60062,2470.507,2021-11-03T10:42:07Z
2021-11-03T08:43:45Z,42.805,6.029,13.3038,4.60041,2470.52,2021-11-03T10:45:10Z
2021-11-03T08:46:48Z,42.805,6.029,13.3023,4.60042,2470.53,2021-11-03T10:48:13Z
2021-11-03T08:49:51Z,42.805,6.029,13.3016,4.60062,2470.52,2021-11-03T10:51:16Z
2021-11-03T08:52:54Z,42.805,6.029,13.3016,4.60054,2470.483,2021-11-03T10:54:19Z
2021-11-03T08:55:57Z,42.805,6.029,13.3022,4.60044,2470.52,2021-11-03T10:57:22Z
2021-11-03T08:59:00Z,42.805,6.029,13.2996,4.60040,2470.507,2021-11-03T11:00:25Z
2021-11-03T09:02:03Z,42.805,6.029,13.3037,4.60049,2470.553,2021-11-03T11:03:28Z
2021-11-03T09:05:07Z,42.805,6.029,13.3002,4.60049,2470.497,2021-11-03T11:06:32Z
2021-11-03T09:08:10Z,42.805,6.029,13.3036,4.60061,2470.483,2021-11-03T11:09:35Z
2021-11-03T09:11:13Z,42.805,6.029,13.3026,4.60048,2470.52,2021-11-03T11:12:38Z
2021-11-03T09:14:16Z,42.805,6.029,13.3029,4.60047,2470.497,2021-11-03T11:15:41Z
2021-11-03T09:17:19Z,42.805,6.029,13.3022,4.60044,2470.483,2021-11-03T11:18:44Z
2021-11-03T09:20:22Z,42.805,6.029,13.3042,4.60072,2470.497,2021-11-03T11:21:47Z
2021-11-03T09:23:25Z,42.805,6.029,13.3016,4.60044,2470.497,2021-11-03T11:24:50Z
2021-11-03T09:26:28Z,42.805,6.029,13.3019,4.60044,2470.497,2021-11-03T11:27:53Z
2021-11-03T09:29:32Z,42.805,6.029,13.3034,4.60052,2470.483,2021-11-03T11:30:57Z
2021-11-03T09:32:35Z,42.805,6.029,13.3032,4.60040,2470.497,2021-11-03T11:34:00Z
2021-11-03T09:35:38Z,42.805,6.029,13.3013,4.60037,2470.483,2021-11-03T11:37:03Z
2021-11-03T09:38:41Z,42.805,6.029,13.3014,4.60052,2470.52,2021-11-03T11:40:06Z
2021-11-03T09:41:44Z,42.805,6.029,13.3033,4.60062,2470.46,2021-11-03T11:43:09Z
2021-11-03T09:44:47Z,42.805,6.029,13.3019,4.60040,2470.474,2021-11-03T11:46:12Z
2021-11-03T09:47:50Z,42.805,6.029,13.3027,4.60029,2470.507,2021-11-03T11:49:15Z
2021-11-03T09:50:53Z,42.805,6.029,13.3005,4.60033,2470.483,2021-11-03T11:52:18Z
2021-11-03T09:53:56Z,42.805,6.029,13.3031,4.60059,2470.483,2021-11-03T11:55:22Z
2021-11-03T09:57:00Z,42.805,6.029,13.3017,4.60044,2470.46,2021-11-03T11:58:25Z
2021-11-03T10:00:03Z,42.805,6.029,13.3021,4.60055,2470.474,2021-11-03T12:01:28Z
2021-11-03T10:03:06Z,42.805,6.029,13.3015,4.60033,2470.437,2021-11-03T12:04:31Z
2021-11-03T10:06:09Z,42.805,6.029,13.3013,4.60046,2470.46,2021-11-03T12:07:34Z
2021-11-03T10:09:12Z,42.805,6.029,13.3012,4.60054,2470.46,2021-11-03T12:10:37Z
2021-11-03T10:12:15Z,42.805,6.029,13.3006,4.60062,2470.413,2021-11-03T12:13:40Z
2021-11-03T10:15:18Z,42.805,6.029,13.3010,4.60062,2470.46,2021-11-03T12:16:43Z
2021-11-03T10:18:21Z,42.805,6.029,13.3010,4.60046,2470.474,2021-11-03T12:19:47Z
2021-11-03T10:21:25Z,42.805,6.029,13.3009,4.60064,2470.46,2021-11-03T12:22:50Z
2021-11-03T10:24:28Z,42.805,6.029,13.3021,4.60038,2470.46,2021-11-03T12:25:53Z
2021-11-03T10:27:31Z,42.805,6.029,13.3016,4.60034,2470.437,2021-11-03T12:28:56Z
2021-11-03T10:30:34Z,42.805,6.029,13.3015,4.60042,2470.46,2021-11-03T12:31:59Z
2021-11-03T10:33:37Z,42.805,6.029,13.3008,4.60054,2470.437,2021-11-03T12:35:02Z
2021-11-03T10:36:40Z,42.805,6.029,13.3018,4.60062,2470.427,2021-11-03T12:38:05Z
2021-11-03T10:39:43Z,42.805,6.029,13.3015,4.60057,2470.474,2021-11-03T12:41:08Z
2021-11-03T10:42:46Z,42.805,6.029,13.3014,4.60043,2470.427,2021-11-03T12:44:11Z
2021-11-03T10:45:50Z,42.805,6.029,13.3021,4.60039,2470.437,2021-11-03T12:47:15Z
2021-11-03T10:48:53Z,42.805,6.029,13.3018,4.60037,2470.437,2021-11-03T12:50:18Z
2021-11-03T10:51:56Z,42.805,6.029,13.3019,4.60049,2470.45,2021-11-03T12:53:21Z
2021-11-03T10:54:59Z,42.805,6.029,13.3014,4.60061,2470.45,2021-11-03T12:56:24Z
2021-11-03T10:58:02Z,42.805,6.029,13.3039,4.60070,2470.45,2021-11-03T12:59:27Z
2021-11-03T11:01:05Z,42.805,6.029,13.3017,4.60049,2470.427,2021-11-03T13:02:30Z
2021-11-03T11:04:08Z,42.805,6.029,13.2997,4.60047,2470.413,2021-11-03T13:05:33Z
2021-11-03T11:07:11Z,42.805,6.029,13.2993,4.60037,2470.413,2021-11-03T13:08:37Z
2021-11-03T11:10:15Z,42.805,6.029,13.3033,4.60035,2470.427,2021-11-03T13:11:40Z
2021-11-03T11:13:18Z,42.805,6.029,13.2999,4.60031,2470.45,2021-11-03T13:14:43Z
2021-11-03T11:16:21Z,42.805,6.029,13.2993,4.60045,2470.437,2021-11-03T13:17:46Z
2021-11-03T11:19:24Z,42.805,6.029,13.2997,4.60026,2470.427,2021-11-03T13:20:49Z
2021-11-03T11:22:27Z,42.805,6.029,13.2996,4.60020,2470.437,2021-11-03T13:23:52Z
2021-11-03T11:25:30Z,42.805,6.029,13.2992,4.60023,2470.399,2021-11-03T13:26:55Z
2021-11-03T11:28:33Z,42.805,6.029,13.2999,4.60025,2470.437,2021-11-03T13:29:58Z
2021-11-03T11:31:36Z,42.805,6.029,13.2996,4.60024,2470.437,2021-11-03T13:33:01Z
2021-11-03T11:34:40Z,42.805,6.029,13.2993,4.60016,2470.427,2021-11-03T13:36:05Z
2021-11-03T11:37:43Z,42.805,6.029,13.2995,4.60021,2470.427,2021-11-03T13:39:08Z
2021-11-03T11:40:46Z,42.805,6.029,13.2991,4.60026,2470.45,2021-11-03T13:42:11Z
2021-11-03T11:43:49Z,42.805,6.029,13.2992,4.60017,2470.427,2021-11-03T13:45:14Z
2021-11-03T11:46:52Z,42.805,6.029,13.2993,4.60014,2470.427,2021-11-03T13:48:17Z
2021-11-03T11:49:55Z,42.805,6.029,13.2994,4.60018,2470.427,2021-11-03T13:51:20Z
2021-11-03T11:52:58Z,42.805,6.029,13.2988,4.60014,2470.413,2021-11-03T13:54:23Z
2021-11-03T11:56:01Z,42.805,6.029,13.2998,4.60015,2470.39,2021-11-03T13:57:27Z
2021-11-03T11:59:05Z,42.805,6.029,13.2993,4.60016,2470.427,2021-11-03T14:00:30Z
2021-11-03T12:02:08Z,42.805,6.029,13.2996,4.60019,2470.39,2021-11-03T14:03:33Z
2021-11-03T12:05:11Z,42.805,6.029,13.2993,4.60016,2470.39,2021-11-03T14:06:36Z
2021-11-03T12:08:14Z,42.805,6.029,13.2996,4.60020,2470.404,2021-11-03T14:09:39Z
2021-11-03T12:11:17Z,42.805,6.029,13.2994,4.60017,2470.376,2021-11-03T14:12:42Z
2021-11-03T12:14:20Z,42.805,6.029,13.2996,4.60014,2470.404,2021-11-03T14:15:45Z
2021-11-03T12:17:23Z,42.805,6.029,13.2996,4.60014,2470.413,2021-11-03T14:18:48Z
2021-11-03T12:20:26Z,42.805,6.029,13.2995,4.60015,2470.404,2021-11-03T14:21:51Z
2021-11-03T12:23:30Z,42.805,6.029,13.2993,4.60015,2470.343,2021-11-03T14:24:55Z
2021-11-03T12:26:33Z,42.805,6.029,13.2994,4.60015,2470.404,2021-11-03T14:27:58Z
2021-11-03T12:29:36Z,42.805,6.029,13.2991,4.60017,2470.39,2021-11-03T14:31:01Z
2021-11-03T12:32:39Z,42.805,6.029,13.2996,4.60016,2470.404,2021-11-03T14:34:04Z
2021-11-03T12:35:42Z,42.805,6.029,13.2992,4.60014,2470.413,2021-11-03T14:37:07Z
2021-11-03T12:38:45Z,42.805,6.029,13.2991,4.60014,2470.427,2021-11-03T14:40:10Z
2021-11-03T12:41:48Z,42.805,6.029,13.2986,4.60014,2470.376,2021-11-03T14:43:13Z
2021-11-03T12:44:51Z,42.805,6.029,13.2993,4.60017,2470.39,2021-11-03T14:46:16Z
2021-11-03T12:47:55Z,42.805,6.029,13.2993,4.60016,2470.39,2021-11-03T14:49:20Z
2021-11-03T12:50:58Z,42.805,6.029,13.2990,4.60016,2470.413,2021-11-03T14:52:23Z
2021-11-03T12:54:01Z,42.805,6.029,13.2995,4.60020,2470.427,2021-11-03T14:55:26Z
2021-11-03T12:57:04Z,42.805,6.029,13.2993,4.60015,2470.427,2021-11-03T14:58:29Z
2021-11-03T13:00:07Z,42.805,6.029,13.2994,4.60016,2470.437,2021-11-03T15:01:32Z
2021-11-03T13:03:10Z,42.805,6.029,13.2996,4.60017,2470.39,2021-11-03T15:04:35Z
2021-11-03T13:06:13Z,42.805,6.029,13.2997,4.60014,2470.437,2021-11-03T15:07:38Z
2021-11-03T13:09:16Z,42.805,6.029,13.2994,4.60015,2470.404,2021-11-03T15:10:41Z
2021-11-03T13:12:20Z,42.805,6.029,13.2997,4.60014,2470.413,2021-11-03T15:13:45Z
2021-11-03T13:15:23Z,42.805,6.029,13.2993,4.60016,2470.427,2021-11-03T15:16:48Z
2021-11-03T13:18:26Z,42.805,6.029,13.2993,4.60016,2470.427,2021-11-03T15:19:51Z
2021-11-03T13:21:29Z,42.805,6.029,13.2993,4.60015,2470.39,2021-11-03T15:22:54Z
2021-11-03T13:24:32Z,42.805,6.029,13.2993,4.60015,2470.413,2021-11-03T15:25:57Z
2021-11-03T13:27:35Z,42.805,6.029,13.2993,4.60014,2470.413,2021-11-03T15:29:00Z
2021-11-03T13:30:38Z,42.805,6.029,13.2990,4.60016,2470.437,2021-11-03T15:32:03Z
2021-11-03T13:33:41Z,42.805,6.029,13.2996,4.60016,2470.413,2021-11-03T15:35:06Z
2021-11-03T13:36:45Z,42.805,6.029,13.2996,4.60016,2470.437,2021-11-03T15:38:10Z
2021-11-03T13:39:48Z,42.805,6.029,13.2991,4.60013,2470.437,2021-11-03T15:41:13Z
2021-11-03T13:42:51Z,42.805,6.029,13.2990,4.60013,2470.413,2021-11-03T15:44:16Z
2021-11-03T13:45:54Z,42.805,6.029,13.2994,4.60016,2470.437,2021-11-03T15:47:19Z
2021-11-03T13:48:57Z,42.805,6.029,13.2991,4.60016,2470.45,2021-11-03T15:50:22Z
2021-11-03T13:52:00Z,42.805,6.029,13.2991,4.60016,2470.423,2021-11-03T15:53:25Z
2021-11-03T13:55:03Z,42.805,6.029,13.2995,4.60014,2470.45,2021-11-03T15:56:28Z
2021-11-03T13:58:06Z,42.805,6.029,13.2996,4.60018,2470.45,2021-11-03T15:59:31Z
2021-11-03T14:01:10Z,42.805,6.029,13.2996,4.60013,2470.413,2021-11-03T16:02:35Z
2021-11-03T14:04:13Z,42.805,6.029,13.2995,4.60014,2470.437,2021-11-03T16:05:38Z
2021-11-03T14:07:16Z,42.805,6.029,13.2999,4.60016,2470.45,2021-11-03T16:08:41Z
2021-11-03T14:10:19Z,42.805,6.029,13.2993,4.60015,2470.474,2021-11-03T16:11:44Z
2021-11-03T14:13:22Z,42.805,6.029,13.2996,4.60016,2470.45,2021-11-03T16:14:47Z
2021-11-03T14:16:25Z,42.805,6.029,13.2994,4.60016,2470.437,2021-11-03T16:17:50Z
2021-11-03T14:19:28Z,42.805,6.029,13.2992,4.60015,2470.46,2021-11-03T16:20:53Z
2021-11-03T14:22:31Z,42.805,6.029,13.2991,4.60016,2470.483,2021-11-03T16:23:56Z
2021-11-03T14:25:35Z,42.805,6.029,13.2998,4.60014,2470.437,2021-11-03T16:27:00Z
2021-11-03T14:28:38Z,42.805,6.029,13.2993,4.60017,2470.483,2021-11-03T16:30:03Z
2021-11-03T14:31:41Z,42.805,6.029,13.2993,4.60016,2470.474,2021-11-03T16:33:06Z
2021-11-03T14:34:44Z,42.805,6.029,13.2991,4.60018,2470.46,2021-11-03T16:36:09Z
2021-11-03T14:37:47Z,42.805,6.029,13.2995,4.60017,2470.46,2021-11-03T16:39:12Z
2021-11-03T14:40:50Z,42.805,6.029,13.2993,4.60016,2470.497,2021-11-03T16:42:15Z
2021-11-03T14:43:53Z,42.805,6.029,13.2991,4.60014,2470.46,2021-11-03T16:45:18Z
2021-11-03T14:46:56Z,42.805,6.029,13.2996,4.60014,2470.483,2021-11-03T16:48:21Z
2021-11-03T14:50:00Z,42.805,6.029,13.2993,4.60015,2470.497,2021-11-03T16:51:25Z
2021-11-03T14:53:03Z,42.805,6.029,13.2995,4.60015,2470.52,2021-11-03T16:54:28Z
2021-11-03T14:56:06Z,42.805,6.029,13.2992,4.60019,2470.497,2021-11-03T16:57:31Z
2021-11-03T14:59:09Z,42.805,6.029,13.2996,4.60015,2470.507,2021-11-03T17:00:34Z
2021-11-03T15:02:12Z,42.805,6.029,13.2992,4.60014,2470.544,2021-11-03T17:03:37Z